When you browse on this site, cookies collect data to enhance your experience and personalize the content and advertising you see.
Visit our Privacy Policy to learn more. By continuing to use the site, you agree to this use of cookies and data.
  • In Hungary
  • List of Countries
  • For 7 days
  • Water Temperature
  • Weather Map
  • News
  • Weather Widgets
  • user-avatar
    Login

    Hourly Weather Krasnyy Bumazhnik

    Today, 23 October, Wednesday

    Time Temperature Precipitation Wind Pressure Humidity
    00:00 +15°C° 0 mm 0 mps 766 mmHg 57%
    01:00 +16°C° 0 mm 1 mps 766 mmHg 58%
    02:00 +15°C° 0 mm 1 mps 766 mmHg 60%
    03:00 +14°C° 0 mm 1 mps 766 mmHg 61%
    04:00 +14°C° 0 mm 1 mps 766 mmHg 62%
    05:00 +14°C° 0 mm 1 mps 766 mmHg 63%
    06:00 +14°C° 0 mm 1 mps 767 mmHg 65%
    07:00 +14°C° 0 mm 1 mps 767 mmHg 62%
    08:00 +15°C° 0 mm 1 mps 767 mmHg 59%
    09:00 +16°C° 0 mm 1 mps 767 mmHg 57%
    10:00 +18°C° 0 mm 1 mps 767 mmHg 53%
    11:00 +20°C° 0 mm 1 mps 766 mmHg 49%
    12:00 +21°C° 0 mm 1 mps 766 mmHg 45%
    13:00 +21°C° 0 mm 1 mps 766 mmHg 44%
    14:00 +22°C° 0 mm 1 mps 766 mmHg 43%
    15:00 +22°C° 0 mm 1 mps 765 mmHg 41%
    16:00 +21°C° 0 mm 1 mps 765 mmHg 44%
    17:00 +18°C° 0 mm 0 mps 765 mmHg 47%
    18:00 +17°C° 0 mm 0 mps 765 mmHg 50%
    19:00 +17°C° 0 mm 0 mps 765 mmHg 51%
    20:00 +16°C° 0 mm 0 mps 765 mmHg 53%
    21:00 +18°C° 0 mm 1 mps 765 mmHg 54%
    22:00 +18°C° 0 mm 1 mps 765 mmHg 56%
    23:00 +16°C° 0 mm 1 mps 765 mmHg 57%

    Tomorrow, 24 October, Thursday

    Time Temperature Precipitation Wind Pressure Humidity
    00:00 +16°C° 0 mm 1 mps 765 mmHg 59%
    01:00 +16°C° 0 mm 1 mps 765 mmHg 60%
    02:00 +15°C° 0 mm 1 mps 765 mmHg 62%
    03:00 +15°C° 0 mm 1 mps 765 mmHg 64%
    04:00 +15°C° 0 mm 1 mps 765 mmHg 64%
    05:00 +13°C° 0 mm 0 mps 765 mmHg 65%
    06:00 +13°C° 0 mm 0 mps 764 mmHg 65%
    07:00 +14°C° 0 mm 0 mps 764 mmHg 62%
    08:00 +15°C° 0 mm 0 mps 765 mmHg 60%
    09:00 +18°C° 0 mm 1 mps 765 mmHg 57%
    10:00 +19°C° 0 mm 1 mps 765 mmHg 53%
    11:00 +19°C° 0 mm 2 mps 764 mmHg 49%
    12:00 +20°C° 0 mm 2 mps 764 mmHg 45%
    13:00 +21°C° 0 mm 2 mps 764 mmHg 44%
    14:00 +21°C° 0 mm 2 mps 764 mmHg 42%
    15:00 +21°C° 0 mm 2 mps 764 mmHg 41%
    16:00 +20°C° 0 mm 2 mps 763 mmHg 45%
    17:00 +19°C° 0 mm 2 mps 763 mmHg 48%
    18:00 +19°C° 0 mm 1 mps 763 mmHg 52%
    19:00 +18°C° 0 mm 1 mps 763 mmHg 54%
    20:00 +18°C° 0 mm 1 mps 764 mmHg 56%
    21:00 +16°C° 0 mm 1 mps 764 mmHg 58%
    22:00 +16°C° 0 mm 1 mps 763 mmHg 58%
    23:00 +16°C° 0 mm 1 mps 763 mmHg 58%

    Day after tomorrow, 25 October, Friday

    Time Temperature Precipitation Wind Pressure Humidity
    00:00 +15°C° 0 mm 0 mps 763 mmHg 59%
    01:00 +15°C° 0 mm 0 mps 763 mmHg 59%
    02:00 +15°C° 0 mm 0 mps 763 mmHg 59%
    03:00 +15°C° 0 mm 0 mps 763 mmHg 59%
    04:00 +14°C° 0 mm 0 mps 763 mmHg 61%
    05:00 +15°C° 0 mm 1 mps 763 mmHg 62%
    06:00 +14°C° 0 mm 1 mps 763 mmHg 64%
    07:00 +15°C° 0 mm 1 mps 763 mmHg 61%
    08:00 +16°C° 0 mm 1 mps 763 mmHg 58%
    09:00 +16°C° 0 mm 1 mps 763 mmHg 55%
    10:00 +18°C° 0 mm 2 mps 763 mmHg 51%
    11:00 +19°C° 0 mm 2 mps 763 mmHg 46%
    12:00 +20°C° 0 mm 2 mps 763 mmHg 42%
    13:00 +21°C° 0 mm 2 mps 763 mmHg 40%
    14:00 +21°C° 0 mm 2 mps 763 mmHg 38%
    15:00 +22°C° 0 mm 3 mps 763 mmHg 36%
    16:00 +20°C° 0 mm 3 mps 763 mmHg 39%
    17:00 +19°C° 0 mm 3 mps 763 mmHg 42%
    18:00 +18°C° 0 mm 3 mps 763 mmHg 45%
    19:00 +17°C° 0 mm 3 mps 763 mmHg 48%
    20:00 +17°C° 0 mm 3 mps 763 mmHg 51%
    21:00 +16°C° 0 mm 3 mps 763 mmHg 54%
    22:00 +14°C° 0 mm 3 mps 763 mmHg 56%
    23:00 +14°C° 0 mm 3 mps 763 mmHg 58%

    26 October, Saturday

    Time Temperature Precipitation Wind Pressure Humidity
    00:00 +13°C° 0 mm 3 mps 763 mmHg 60%
    01:00 +13°C° 0 mm 3 mps 763 mmHg 61%
    02:00 +12°C° 0 mm 3 mps 763 mmHg 62%
    03:00 +12°C° 0 mm 3 mps 763 mmHg 64%
    04:00 +12°C° 0 mm 3 mps 764 mmHg 64%
    05:00 +11°C° 0 mm 3 mps 764 mmHg 64%
    06:00 +11°C° 0 mm 3 mps 764 mmHg 65%
    07:00 +12°C° 0 mm 3 mps 764 mmHg 61%
    08:00 +13°C° 0 mm 3 mps 764 mmHg 57%
    09:00 +13°C° 0 mm 4 mps 765 mmHg 54%
    10:00 +15°C° 0 mm 4 mps 765 mmHg 49%
    11:00 +18°C° 0 mm 4 mps 765 mmHg 44%
    12:00 +19°C° 0 mm 4 mps 765 mmHg 39%
    13:00 +20°C° 0 mm 4 mps 765 mmHg 38%
    14:00 +20°C° 0 mm 4 mps 764 mmHg 37%
    15:00 +21°C° 0 mm 4 mps 764 mmHg 36%
    16:00 +19°C° 0 mm 3 mps 764 mmHg 39%
    17:00 +18°C° 0 mm 3 mps 764 mmHg 41%
    18:00 +17°C° 0 mm 2 mps 764 mmHg 44%
    19:00 +16°C° 0 mm 2 mps 765 mmHg 45%
    20:00 +16°C° 0 mm 2 mps 765 mmHg 47%
    21:00 +15°C° 0 mm 2 mps 765 mmHg 48%
    22:00 +15°C° 0 mm 2 mps 765 mmHg 50%
    23:00 +14°C° 0 mm 2 mps 765 mmHg 52%

    27 October, Sunday

    Time Temperature Precipitation Wind Pressure Humidity
    00:00 +14°C° 0 mm 2 mps 765 mmHg 53%
    01:00 +13°C° 0 mm 2 mps 765 mmHg 55%
    02:00 +13°C° 0 mm 1 mps 765 mmHg 56%
    03:00 +12°C° 0 mm 1 mps 765 mmHg 57%
    04:00 +12°C° 0 mm 1 mps 765 mmHg 59%
    05:00 +12°C° 0 mm 1 mps 765 mmHg 61%
    06:00 +12°C° 0 mm 1 mps 765 mmHg 62%
    07:00 +12°C° 0 mm 1 mps 765 mmHg 60%
    08:00 +13°C° 0 mm 1 mps 765 mmHg 59%
    09:00 +14°C° 0 mm 1 mps 765 mmHg 57%
    10:00 +16°C° 0 mm 1 mps 765 mmHg 55%
    11:00 +18°C° 0 mm 1 mps 765 mmHg 52%
    12:00 +19°C° 0 mm 2 mps 765 mmHg 50%
    13:00 +20°C° 0 mm 2 mps 764 mmHg 48%
    14:00 +20°C° 0 mm 2 mps 764 mmHg 46%
    15:00 +21°C° 0 mm 2 mps 763 mmHg 44%
    16:00 +20°C° 0 mm 2 mps 763 mmHg 48%
    17:00 +18°C° 0 mm 2 mps 763 mmHg 52%
    18:00 +17°C° 0 mm 2 mps 763 mmHg 57%
    19:00 +18°C° 0 mm 1 mps 763 mmHg 59%
    20:00 +16°C° 0 mm 1 mps 763 mmHg 61%
    21:00 +16°C° 0 mm 1 mps 763 mmHg 63%
    22:00 +15°C° 0 mm 1 mps 762 mmHg 64%
    23:00 +15°C° 0 mm 1 mps 762 mmHg 65%

    28 October, Monday

    Time Temperature Precipitation Wind Pressure Humidity
    00:00 +15°C° 0 mm 1 mps 762 mmHg 66%
    01:00 +14°C° 0 mm 1 mps 762 mmHg 67%
    02:00 +14°C° 0 mm 1 mps 762 mmHg 69%
    03:00 +14°C° 0 mm 1 mps 762 mmHg 70%
    04:00 +13°C° 0 mm 1 mps 761 mmHg 72%
    05:00 +12°C° 0 mm 0 mps 761 mmHg 73%
    06:00 +12°C° 0 mm 0 mps 761 mmHg 75%
    07:00 +13°C° 0 mm 0 mps 761 mmHg 71%
    08:00 +14°C° 0 mm 0 mps 761 mmHg 68%
    09:00 +14°C° 0 mm 0 mps 761 mmHg 65%
    10:00 +18°C° 0 mm 1 mps 761 mmHg 59%
    11:00 +19°C° 0 mm 1 mps 760 mmHg 54%
    12:00 +19°C° 0 mm 2 mps 760 mmHg 49%
    13:00 +20°C° 0 mm 2 mps 760 mmHg 47%
    14:00 +20°C° 0 mm 2 mps 760 mmHg 45%
    15:00 +21°C° 0 mm 2 mps 759 mmHg 43%
    16:00 +19°C° 0 mm 2 mps 759 mmHg 47%
    17:00 +18°C° 0 mm 2 mps 759 mmHg 50%
    18:00 +17°C° 0 mm 2 mps 759 mmHg 54%
    19:00 +17°C° 0 mm 2 mps 759 mmHg 54%
    20:00 +16°C° 0 mm 2 mps 759 mmHg 55%
    21:00 +16°C° 0 mm 2 mps 759 mmHg 56%
    22:00 +15°C° 0 mm 1 mps 759 mmHg 57%
    23:00 +15°C° 0 mm 1 mps 758 mmHg 59%

    29 October, Tuesday

    Time Temperature Precipitation Wind Pressure Humidity
    00:00 +15°C° 0 mm 1 mps 758 mmHg 60%
    01:00 +15°C° 0 mm 1 mps 758 mmHg 62%
    02:00 +14°C° 0 mm 1 mps 758 mmHg 63%
    03:00 +14°C° 0 mm 1 mps 758 mmHg 65%
    04:00 +14°C° 0 mm 1 mps 758 mmHg 66%
    05:00 +13°C° 0 mm 1 mps 758 mmHg 68%
    06:00 +13°C° 0 mm 1 mps 758 mmHg 69%
    07:00 +14°C° 0 mm 1 mps 758 mmHg 67%
    08:00 +15°C° 0 mm 1 mps 758 mmHg 64%
    09:00 +15°C° 0 mm 1 mps 758 mmHg 61%
    10:00 +18°C° 0 mm 1 mps 758 mmHg 56%
    11:00 +18°C° 0 mm 2 mps 758 mmHg 52%
    12:00 +20°C° 0 mm 3 mps 758 mmHg 47%
    13:00 +20°C° 0 mm 3 mps 758 mmHg 46%
    14:00 +20°C° 0 mm 3 mps 757 mmHg 45%
    15:00 +20°C° 0 mm 4 mps 757 mmHg 44%
    16:00 +19°C° 0 mm 4 mps 757 mmHg 49%
    17:00 +18°C° 0 mm 3 mps 757 mmHg 54%
    18:00 +16°C° 0 mm 3 mps 757 mmHg 60%
    19:00 +16°C° 0 mm 3 mps 757 mmHg 63%
    20:00 +15°C° 0 mm 2 mps 757 mmHg 66%
    21:00 +15°C° 0 mm 2 mps 758 mmHg 70%
    22:00 +13°C° 0 mm 3 mps 758 mmHg 72%
    23:00 +13°C° 0 mm 3 mps 758 mmHg 75%
    Show more